Stations météo

réclame
Mon MeteoGroup
La Rochelle/Ile de Re, France (7316): Température de l'air & dewpoint: 16.06.2018 19:00:00 - 22.06.2018 19:00:00 (CEST)La Rochelle/Ile de Re, France (7316): Vitesse du vent & gusts: 16.06.2018 19:00:00 - 22.06.2018 19:00:00 (CEST)La Rochelle/Ile de Re, France (7316): Direction du vent: 16.06.2018 19:00:00 - 22.06.2018 19:00:00 (CEST)La Rochelle/Ile de Re, France (7316): reduced air pressure: 16.06.2018 19:00:00 - 22.06.2018 19:00:00 (CEST)La Rochelle/Ile de Re, France (7316): visibility: 16.06.2018 19:00:00 - 22.06.2018 19:00:00 (CEST)La Rochelle/Ile de Re, France (7316): Ensoleillement: 16.06.2018 19:00:00 - 22.06.2018 19:00:00 (CEST)La Rochelle/Ile de Re, France (7316): Quantités de précipitations: 16.06.2018 19:00:00 - 22.06.2018 19:00:00 (CEST)
Date & Time tt [°C] td [°C] ff [km/h] ff [knt] fx [km/h] fx [knt] dd ppp [hPa] vv [km] sd [min] rr [mm]
22.06.2018 19:00:00 23,5 7,1 30 16 53 29 ENE 1024,4 40 60 0,0
22.06.2018 18:00:00 23,5 6,7 32 18 54 29 ENE 1024,7 20 60 0,0
22.06.2018 17:00:00 23,7 6,0 34 18 56 31 ENE 1024,8 31 60 0,0
22.06.2018 16:00:00 23,5 5,4 34 19 53 29 ENE 1025,2 28 60 0,0
22.06.2018 15:00:00 23,1 4,6 32 17 50 27 ENE 1025,3 24 60 0,0
22.06.2018 14:00:00 22,1 3,2 33 18 54 29 ENE 1025,9 20 60 0,0
22.06.2018 13:00:00 21,2 4,3 34 18 52 28 ENE 1025,9 26 60 0,0
22.06.2018 12:00:00 19,8 3,5 32 18 54 29 ENE 1026,1 27 60 0,0
22.06.2018 11:00:00 17,8 4,0 36 20 56 31 ENE 1026,3 28 60 0,0
22.06.2018 10:00:00 16,6 5,5 32 18 50 27 ENE 1026,3 31 60 0,0
22.06.2018 09:00:00 14,7 6,0 33 18 49 26 ENE 1026,3 35 60 0,0
22.06.2018 08:00:00 13,3 6,4 29 16 43 23 ENE 1026,0 41 60 0,0
22.06.2018 07:00:00 12,3 6,3 21 12 33 18 ENE 1026,0 43 20 0,0
22.06.2018 06:00:00 12,6 6,8 22 12 36 19 ENE 1025,7 60 0 0,0
22.06.2018 05:00:00 13,4 7,6 22 12 35 19 ENE 1025,1 60 0 0,0
22.06.2018 04:00:00 13,8 8,2 20 11 29 16 NE 1024,7 60 0 0,0
22.06.2018 03:00:00 14,6 8,5 20 11 31 17 NE 1024,8 60 0 0,0
22.06.2018 02:00:00 15,7 9,4 19 10 31 17 NE 1024,5 60 0 0,0
22.06.2018 01:00:00 16,6 10,2 20 11 31 17 NE 1024,2 60 0 0,0
22.06.2018 00:00:00 18,0 10,6 22 12 36 20 NNE 1023,8 60 0 0,0
21.06.2018 23:00:00 19,3 10,6 22 12 45 25 NNE 1023,4 60 0 0,0
21.06.2018 22:00:00 21,0 11,1 23 12 37 20 NE 1022,5 60 8 0,0
21.06.2018 21:00:00 22,9 11,3 23 12 45 24 NNE 1021,8 33 49 0,0
21.06.2018 20:00:00 25,0 14,5 29 16 41 22 NNE 1021,3 52 60 0,0
21.06.2018 19:00:00 26,0 15,1 26 14 37 20 NNE 1021,1 40 60 0,0
21.06.2018 18:00:00 26,4 15,7 24 13 37 20 NNE 1021,3 36 60 0,0
21.06.2018 17:00:00 26,6 17,1 23 12 36 20 NNE 1021,2 38 60 0,0
21.06.2018 16:00:00 26,1 16,9 25 14 42 23 NNE 1021,2 45 60 0,0
21.06.2018 15:00:00 25,7 17,4 27 14 38 20 NNE 1021,1 32 60 0,0
21.06.2018 14:00:00 25,2 16,3 27 15 41 22 NNE 1021,0 35 60 0,0
21.06.2018 13:00:00 25,0 16,2 28 15 41 22 NNE 1020,8 33 60 0,0
21.06.2018 12:00:00 23,5 15,8 29 15 44 24 NNE 1020,8 34 60 0,0
21.06.2018 11:00:00 22,1 15,4 33 18 46 25 NNE 1020,7 34 60 0,0
21.06.2018 10:00:00 21,5 16,0 28 15 41 22 NNE 1020,4 37 60 0,0
21.06.2018 09:00:00 20,8 16,4 25 14 40 22 NNE 1020,6 36 60 0,0
21.06.2018 08:00:00 19,8 16,8 18 10 29 16 NE 1019,9 40 60 0,0
21.06.2018 07:00:00 18,7 16,7 15 8 26 14 NE 1019,5 31 21 0,0
21.06.2018 06:00:00 18,7 16,7 19 10 32 17 NNE 1019,2 35 0 0,0
21.06.2018 05:00:00 19,3 17,3 20 11 31 17 NNE 1018,9 34 0 0,0
21.06.2018 04:00:00 20,2 16,8 18 10 29 16 NNE 1019,0 54 0 0,0
21.06.2018 03:00:00 20,3 16,5 12 6 17 9 NNE 1018,9 60 0 0,0
21.06.2018 02:00:00 20,5 16,9 11 6 15 8 NE 1018,9 60 0 0,0
21.06.2018 01:00:00 22,0 18,2 11 6 16 9 NNE 1019,1 60 0 0,0
21.06.2018 00:00:00 22,9 18,4 12 6 15 8 NNE 1019,0 60 0 0,0
20.06.2018 23:00:00 23,8 18,4 9 5 13 7 NNE 1018,9 60 0 0,0
20.06.2018 22:00:00 25,9 18,3 9 5 16 9 NNE 1018,0 60 5 0,0
20.06.2018 21:00:00 28,8 18,0 10 6 19 10 NNE 1017,8 60 60 0,0
20.06.2018 20:00:00 27,4 18,7 12 6 21 12 NNW 1017,7 48 60 0,0
20.06.2018 19:00:00 30,2 16,6 10 6 29 16 NE 1017,7 56 60 0,0
20.06.2018 18:00:00 31,7 13,9 16 9 27 15 ENE 1017,8 23 60 0,0
20.06.2018 17:00:00 32,0 14,2 17 9 31 17 ENE 1017,9 60 60 0,0
20.06.2018 16:00:00 31,7 15,6 12 7 30 16 E 1018,3 60 60 0,0
20.06.2018 15:00:00 30,6 16,2 13 7 27 14 E 1018,7 60 60 0,0
20.06.2018 14:00:00 30,0 18,1 13 7 24 13 ENE 1018,9 60 60 0,0
20.06.2018 13:00:00 28,7 18,8 15 8 24 13 E 1019,3 20 60 0,0
20.06.2018 12:00:00 27,4 18,7 15 8 26 14 ENE 1019,5 60 60 0,0
20.06.2018 11:00:00 25,7 18,6 13 7 21 11 ENE 1019,6 58 60 0,0
20.06.2018 10:00:00 24,0 17,7 12 6 21 11 E 1019,8 55 60 0,0
20.06.2018 09:00:00 21,7 17,9 17 9 29 15 E 1019,6 49 60 0,0
20.06.2018 08:00:00 19,2 16,8 18 10 26 14 ENE 1019,7 51 58 0,0
20.06.2018 07:00:00 17,6 16,1 14 8 19 11 ENE 1019,7 39 21 0,0
20.06.2018 06:00:00 17,0 15,5 16 8 24 13 ENE 1019,7 32 0 0,0
20.06.2018 05:00:00 17,6 15,9 18 10 26 14 ENE 1019,9 40 0 0,0
20.06.2018 04:00:00 17,6 15,9 14 8 20 11 NE 1020,4 42 0 0,0
20.06.2018 03:00:00 17,8 16,1 11 6 17 9 NE 1020,8 41 0 0,0
20.06.2018 02:00:00 18,3 16,3 13 7 19 10 NE 1021,2 45 0 0,0
20.06.2018 01:00:00 19,2 16,6 14 7 23 12 NE 1021,4 57 0 0,0
20.06.2018 00:00:00 20,4 17,0 15 8 22 12 NE 1021,7 60 0 0,0
19.06.2018 23:00:00 20,7 16,9 13 7 18 10 NE 1021,9 60 0 0,0
19.06.2018 22:00:00 22,4 16,9 13 7 25 13 ENE 1021,6 60 4 0,0
19.06.2018 21:00:00 25,0 16,7 18 10 29 15 ENE 1021,7 60 60 0,0
19.06.2018 20:00:00 26,1 17,5 18 10 32 17 ENE 1022,0 60 60 0,0
19.06.2018 19:00:00 23,5 18,6 15 8 27 14 WNW 1022,3 19 60 0,0
19.06.2018 18:00:00 22,5 17,8 21 11 30 16 NW 1022,8 19 60 0,0
19.06.2018 17:00:00 23,3 18,2 23 12 29 16 NW 1023,3 20 57 0,0
19.06.2018 16:00:00 25,0 18,4 16 9 32 18 NNE 1023,8 60 38 0,0
19.06.2018 15:00:00 25,7 16,3 16 9 30 16 ENE 1024,2 60 30 0,0
19.06.2018 14:00:00 24,5 16,2 8 4 23 12 W 1024,6 16 34 0,0
19.06.2018 13:00:00 24,9 15,8 10 6 24 13 SE 1025,2 52 50 0,0
19.06.2018 12:00:00 23,9 15,4 12 7 22 12 ESE 1025,3 60 60 0,0
19.06.2018 11:00:00 22,4 15,3 14 7 23 12 E 1025,7 53 60 0,0
19.06.2018 10:00:00 21,1 15,6 14 8 21 11 E 1026,0 41 60 0,0
19.06.2018 09:00:00 18,8 15,7 11 6 16 8 ENE 1026,3 20 60 0,0
19.06.2018 08:00:00 16,5 15,2 7 4 10 5 NE 1026,4 15 60 0,0
19.06.2018 07:00:00 14,3 13,3 2 1 8 4 N 1026,3 14 21 0,0
19.06.2018 06:00:00 13,8 12,5 3 2 9 5 NNE 1026,3 10 0 0,0
19.06.2018 05:00:00 14,5 13,2 5 3 12 6 N 1026,2 19 0 0,0
19.06.2018 04:00:00 15,2 13,7 8 5 15 8 N 1026,2 20 0 0,0
19.06.2018 03:00:00 15,8 14,0 11 6 18 10 N 1026,0 33 0 0,0
19.06.2018 02:00:00 16,1 14,1 12 6 23 13 N 1026,4 35 0 0,0
19.06.2018 01:00:00 16,6 13,9 14 8 27 14 N 1026,3 47 0 0,0
19.06.2018 00:00:00 17,1 14,0 16 9 24 13 NNW 1026,6 49 0 0,0
18.06.2018 23:00:00 17,3 14,4 18 10 24 13 NNW 1026,5 45 0 0,0
18.06.2018 22:00:00 17,3 14,0 19 10 27 15 NW 1026,1 54 0 0,0
18.06.2018 21:00:00 17,7 13,6 20 11 31 17 NW 1025,9 19 10 0,0
18.06.2018 20:00:00 18,7 14,0 23 13 31 17 NW 1025,6 31 60 0,0
18.06.2018 19:00:00 19,5 14,5 22 12 31 17 NW 1025,5 32 60 0,0
18.06.2018 18:00:00 20,1 14,5 21 12 31 17 NW 1025,8 33 60 0,0
18.06.2018 17:00:00 20,2 14,6 23 13 30 16 NW 1025,7 36 60 0,0
18.06.2018 16:00:00 20,1 13,8 20 11 32 18 NW 1025,8 40 60 0,0
18.06.2018 15:00:00 19,8 13,7 22 12 32 17 NW 1025,9 20 44 0,0
18.06.2018 14:00:00 19,6 15,0 21 12 29 16 WNW 1025,8 52 11 0,0
18.06.2018 13:00:00 18,9 14,8 16 9 24 13 NW 1025,8 54 19 0,0
18.06.2018 12:00:00 18,3 15,2 18 10 27 15 NNW 1025,6 50 0 0,0
18.06.2018 11:00:00 18,6 15,3 17 9 25 13 WNW 1025,2 52 0 0,0
18.06.2018 10:00:00 18,5 14,8 13 7 31 17 NW 1025,1 53 0 0,0
18.06.2018 09:00:00 18,1 14,8 16 8 27 14 NW 1024,8 60 0 0,0
18.06.2018 08:00:00 17,0 15,5 16 9 31 17 WNW 1024,6 41 0 0,0
18.06.2018 07:00:00 16,6 15,6 22 12 33 18 WNW 1024,3 20 0 0,4
18.06.2018 06:00:00 16,9 15,8 15 8 26 14 W 1024,2 15 0 0,0
18.06.2018 05:00:00 17,1 16,1 10 5 18 10 W 1023,9 48 0 0,0
18.06.2018 04:00:00 16,8 15,7 13 7 19 11 W 1023,9 13 0 0,2
18.06.2018 03:00:00 16,9 15,2 11 6 22 12 WSW 1024,3 8 0 0,0
18.06.2018 02:00:00 17,5 14,9 11 6 26 14 W 1024,4 39 0 0,0
18.06.2018 01:00:00 17,1 14,9 17 9 26 14 W 1024,8 15 0 0,0
18.06.2018 00:00:00 17,3 14,2 11 6 27 15 W 1025,2 37 0 0,0
17.06.2018 23:00:00 17,3 13,0 17 9 27 15 W 1025,0 51 0 0,0
17.06.2018 22:00:00 17,4 12,9 16 8 24 13 W 1024,5 49 0 0,0
17.06.2018 21:00:00 17,6 12,1 21 12 28 15 W 1024,6 59 12 0,0
17.06.2018 20:00:00 18,3 12,5 20 11 30 16 W 1024,2 41 13 0,0
17.06.2018 19:00:00 18,3 12,5 18 10 31 17 WNW 1024,2 41 15 0,0
17.06.2018 18:00:00 18,8 11,8 21 12 33 18 NW 1024,2 60 26 0,0
17.06.2018 17:00:00 19,6 11,1 20 11 32 17 W 1024,2 51 49 0,0
17.06.2018 16:00:00 19,2 12,0 23 12 35 19 NW 1023,9 48 35 0,0
17.06.2018 15:00:00 19,5 13,7 23 12 33 18 NW 1023,7 20 9 0,0
17.06.2018 14:00:00 18,5 12,5 22 12 30 16 NW 1023,6 55 12 0,0
17.06.2018 13:00:00 18,8 12,1 16 9 32 17 W 1023,5 39 49 0,0
17.06.2018 12:00:00 19,1 12,6 15 8 24 13 WSW 1023,5 29 44 0,0
17.06.2018 11:00:00 17,9 10,3 8 4 16 9 NNW 1023,6 20 27 0,0
17.06.2018 10:00:00 17,4 10,5 6 3 10 6 NNW 1023,4 51 32 0,0
17.06.2018 09:00:00 17,1 10,0 6 3 17 9 N 1023,2 52 50 0,0
17.06.2018 08:00:00 15,6 10,4 12 7 20 11 N 1022,8 43 51 0,0
17.06.2018 07:00:00 14,7 11,7 14 7 20 11 N 1022,4 49 14 0,0
17.06.2018 06:00:00 14,9 12,4 14 8 24 13 N 1021,9 36 0 0,0
17.06.2018 05:00:00 15,2 12,9 13 7 19 10 N 1021,6 38 0 0,0
17.06.2018 04:00:00 16,1 13,9 17 9 30 16 NNW 1021,4 5 0 0,6
17.06.2018 03:00:00 17,0 14,3 10 5 19 11 W 1021,3 43 0 0,0
17.06.2018 02:00:00 16,8 13,7 11 6 19 11 W 1021,4 57 0 0,0
17.06.2018 01:00:00 16,5 13,6 9 5 18 10 W 1021,8 59 0 0,0
17.06.2018 00:00:00 17,0 12,7 10 6 16 9 W 1021,6 60 0 0,0
16.06.2018 23:00:00 16,6 12,3 12 7 24 13 WNW 1021,8 60 0 0,0
16.06.2018 22:00:00 17,1 12,4 16 9 25 13 WNW 1021,0 60 0 0,0
16.06.2018 21:00:00 17,5 12,8 16 9 25 13 WNW 1021,0 59 34 0,0
16.06.2018 20:00:00 18,4 12,4 21 11 30 16 NW 1020,4 60 11 0,0
16.06.2018 19:00:00 18,0 11,3 24 13 30 16 NW 1020,4 56 4 0,0

tt = Température de l'air
td = dewpoint
ff = Vitesse du vent
fx = gusts
dd = Direction du vent
ppp = reduced air pressure
vv = visibility
sd = Ensoleillement
rr = Quantités de précipitations

stations d'obs. à proximité